Date String (YYYY-MM-DD hh:mm:ss) UTC,Instrument flags,Ambient pressure (hPa),Sample flow (lpm),Bypass flow (lpm),Sample temperature (°C),Ambient temperature (°C),ASC tube jacket temperature (°C),LED temperature (°C),Box temperature (°C),Sample RH (%),Span deviation,Mass concentration (μg/m³),Mass concentration (μg/m³),Mass concentration (μg/m³)
DateTimeUTC,F1_M11,P_M11,Q1_M11,Q2_M11,T1_M11,T2_M11,T3_M11,T4_M11,T5_M11,U1_M11,ZSPAN_M11,X0_M11,X2_M11,X1_M11
2022-06-13 17:00:00,,0816.0,4.99,0.00,28.8,26.9,00.0,37.5,30.6,11.0,0002.9,0047.72,0032.43,0030.40
2022-06-13 17:01:00,,0816.1,5.01,0.00,28.8,26.9,00.0,37.5,30.6,12.2,0003.1,0047.69,0032.41,0030.44
2022-06-13 17:02:00,,0816.1,5.00,0.00,28.7,27.0,00.0,37.5,30.5,11.5,0003.4,0046.93,0032.44,0030.53
2022-06-13 17:03:00,,0816.1,4.99,0.00,28.7,27.2,00.0,37.5,30.6,10.7,0004.1,0047.12,0032.55,0030.64
2022-06-13 17:04:00,,0815.6,5.01,0.00,28.7,27.3,00.0,37.5,30.6,12.1,0004.4,0047.90,0032.66,0030.75
2022-06-13 17:05:00,,0815.6,5.01,0.00,28.8,27.5,00.0,37.6,30.7,10.4,0004.0,0047.40,0032.74,0030.85
2022-06-13 17:06:00,,0815.6,5.00,0.00,28.8,27.7,00.0,37.6,30.8,10.3,0004.2,0047.77,0032.80,0030.94
2022-06-13 17:07:00,,0815.6,5.00,0.00,28.8,27.5,00.0,37.5,30.8,10.2,0004.5,0048.08,0032.88,0031.03
2022-06-13 17:08:00,,0815.7,4.99,0.00,28.8,26.9,00.0,37.5,30.6,10.0,0004.8,0048.62,0033.10,0031.23
2022-06-13 17:09:00,,0815.6,5.01,0.00,28.7,26.8,00.0,37.5,30.5,10.9,0004.8,0048.93,0033.38,0031.51
2022-06-13 17:10:00,,0815.7,4.99,0.00,28.7,26.9,00.0,37.5,30.5,10.0,0004.8,0048.77,0033.61,0031.72
2022-06-13 17:11:00,,0815.7,4.99,0.00,28.7,27.0,00.0,37.5,30.5,09.8,0004.6,0049.03,0033.84,0031.92
2022-06-13 17:12:00,,0815.6,5.00,0.00,28.7,27.2,00.0,37.5,30.6,10.5,0004.4,0049.28,0034.05,0032.08
2022-06-13 17:13:00,,0815.6,5.01,0.00,28.7,27.4,00.0,37.5,30.7,10.5,0004.1,0048.61,0034.20,0032.19
2022-06-13 17:14:00,,0815.7,5.01,0.00,28.8,27.6,00.0,37.5,30.7,10.4,0003.5,0048.17,0034.25,0032.24
2022-06-13 17:15:00,,0815.8,5.00,0.00,28.8,27.7,00.0,37.5,30.8,10.9,0003.2,0049.22,0034.35,0032.29
2022-06-13 17:16:00,,0816.1,5.00,0.00,28.8,27.2,00.0,37.5,30.6,10.2,0003.4,0049.83,0034.58,0032.51
2022-06-13 17:17:00,,0816.1,5.00,0.00,28.7,26.8,00.0,37.4,30.5,10.6,0003.2,0049.65,0034.74,0032.67
2022-06-13 17:18:00,,0816.0,4.99,0.00,28.7,26.8,00.0,37.4,30.5,10.3,0002.9,0049.95,0034.88,0032.82
2022-06-13 17:19:00,,0816.0,4.99,0.00,28.7,26.9,00.0,37.4,30.5,10.7,0002.4,0050.49,0034.90,0032.91
2022-06-13 17:20:00,,0815.9,5.00,0.00,28.7,27.1,00.0,37.5,30.6,10.2,0002.6,0050.74,0034.95,0032.94
2022-06-13 17:21:00,,0815.6,4.99,0.00,28.7,27.3,00.0,37.5,30.6,10.1,0003.0,0051.39,0034.99,0032.98
2022-06-13 17:22:00,,0815.5,5.00,0.00,28.7,27.5,00.0,37.5,30.7,09.8,0003.3,0051.90,0035.04,0033.08
2022-06-13 17:23:00,,0815.4,5.00,0.00,28.8,27.7,00.0,37.5,30.7,09.9,0003.1,0051.12,0035.17,0033.23
2022-06-13 17:24:00,,0815.4,5.01,0.00,28.8,27.5,00.0,37.5,30.7,10.2,0003.6,0050.95,0035.34,0033.41
2022-06-13 17:25:00,,0815.5,4.99,0.00,28.7,26.9,00.0,37.4,30.6,11.2,0003.4,0050.47,0035.52,0033.62
2022-06-13 17:26:00,,0815.4,5.00,0.00,28.7,26.8,00.0,37.4,30.5,11.9,0004.1,0050.39,0035.72,0033.91
2022-06-13 17:27:00,,0815.5,5.01,0.00,28.7,26.9,00.0,37.4,30.5,12.5,0004.1,0050.32,0035.77,0034.02
2022-06-13 17:28:00,,0815.4,5.01,0.00,28.6,27.0,00.0,37.4,30.5,10.8,0004.1,0050.59,0035.92,0034.12
2022-06-13 17:29:00,,0815.4,5.00,0.00,28.7,27.2,00.0,37.5,30.5,10.9,0004.0,0051.39,0036.16,0034.38
2022-06-13 17:30:00,,0815.5,5.00,0.00,28.7,27.4,00.0,37.5,30.6,11.2,0004.3,0050.84,0036.47,0034.66
2022-06-13 17:31:00,,0815.4,5.00,0.00,28.7,27.6,00.0,37.5,30.7,11.3,0004.0,0051.73,0036.75,0034.98
2022-06-13 17:32:00,,0815.5,5.00,0.00,28.8,27.8,00.0,37.5,30.8,10.3,0003.7,0051.30,0037.07,0035.38
2022-06-13 17:33:00,,0815.4,5.01,0.00,28.8,27.7,00.0,37.5,30.8,10.1,0003.6,0050.63,0037.38,0035.75
2022-06-13 17:34:00,,0815.5,5.01,0.00,28.8,27.1,00.0,37.5,30.6,09.4,0003.6,0051.31,0037.68,0036.05
2022-06-13 17:35:00,,0815.5,4.99,0.00,28.7,27.0,00.0,37.4,30.6,11.0,0004.0,0051.17,0037.90,0036.30
2022-06-13 17:36:00,,0815.4,4.98,0.00,28.7,27.0,00.0,37.5,30.6,09.9,0003.9,0051.43,0038.09,0036.51
2022-06-13 17:37:00,,0815.5,5.01,0.00,28.7,27.2,00.0,37.5,30.6,09.3,0003.6,0051.58,0038.32,0036.72
2022-06-13 17:38:00,,0815.4,5.01,0.00,28.7,27.3,00.0,37.5,30.6,09.5,0003.4,0050.74,0038.49,0036.90
2022-06-13 17:39:00,,0815.4,4.99,0.00,28.7,27.5,00.0,37.5,30.7,09.3,0003.1,0050.86,0038.63,0037.10
2022-06-13 17:40:00,,0815.4,4.99,0.00,28.8,27.7,00.0,37.5,30.8,09.8,0002.9,0049.51,0038.69,0037.17
2022-06-13 17:41:00,,0815.5,5.00,0.00,28.8,27.8,00.0,37.5,30.8,09.2,0003.0,0048.58,0038.66,0037.20
2022-06-13 17:42:00,,0815.4,5.00,0.00,28.8,27.4,00.0,37.5,30.7,09.6,0003.3,0047.53,0038.61,0037.21
2022-06-13 17:43:00,,0815.4,4.99,0.00,28.8,26.9,00.0,37.5,30.6,10.4,0003.4,0047.08,0038.64,0037.22
2022-06-13 17:44:00,,0815.4,5.01,0.00,28.7,26.9,00.0,37.4,30.6,09.0,0003.5,0047.73,0038.64,0037.19
2022-06-13 17:45:00,,0815.4,5.01,0.00,28.7,27.0,00.0,37.5,30.5,09.5,0003.7,0047.76,0038.56,0037.08
2022-06-13 17:46:00,,0815.3,5.00,0.00,28.7,27.1,00.0,37.5,30.6,08.8,0003.5,0047.88,0038.38,0036.94
2022-06-13 17:47:00,,0815.4,5.00,0.00,28.7,27.3,00.0,37.5,30.6,09.3,0003.6,0048.15,0038.28,0036.84
2022-06-13 17:48:00,,0815.4,4.99,0.00,28.7,27.5,00.0,37.5,30.7,09.1,0004.2,0047.35,0038.19,0036.75
2022-06-13 17:49:00,,0815.3,5.00,0.00,28.8,27.7,00.0,37.5,30.8,09.8,0004.4,0047.10,0038.11,0036.67
2022-06-13 17:50:00,,0815.3,5.00,0.00,28.8,27.6,00.0,37.5,30.8,10.2,0004.7,0046.61,0038.06,0036.63
2022-06-13 17:51:00,,0815.3,5.00,0.00,28.8,27.1,00.0,37.5,30.6,09.9,0005.0,0046.56,0037.98,0036.56
2022-06-13 17:52:00,,0815.3,5.01,0.00,28.7,26.9,00.0,37.4,30.6,09.4,0005.0,0047.43,0037.90,0036.48
2022-06-13 17:53:00,,0815.3,4.99,0.00,28.7,26.9,00.0,37.4,30.5,09.9,0004.9,0048.32,0037.82,0036.34
2022-06-13 17:54:00,,0815.2,5.00,0.00,28.7,27.1,00.0,37.5,30.5,10.6,0004.9,0048.33,0037.64,0036.18
2022-06-13 17:55:00,,0815.2,5.01,0.00,28.7,27.2,00.0,37.5,30.6,10.1,0004.9,0049.27,0037.49,0036.04
2022-06-13 17:56:00,,0815.2,5.00,0.00,28.7,27.4,00.0,37.5,30.7,10.3,0004.9,0049.73,0037.41,0035.94
2022-06-13 17:57:00,,0815.2,4.99,0.00,28.7,27.6,00.0,37.5,30.7,09.9,0005.0,0049.66,0037.30,0035.79
2022-06-13 17:58:00,,0815.1,4.99,0.00,28.8,27.6,00.0,37.5,30.8,09.8,0005.1,0049.46,0037.18,0035.65
2022-06-13 17:59:00,,0815.5,5.00,0.00,28.7,27.0,00.0,37.5,30.6,11.2,0004.9,0049.85,0036.82,0035.30
